Miscellaneous Local Product
Issued by NWS Hastings, NE

Home | Current Version | Previous Version | Graphics & Text | Print | Product List | Glossary On
Versions: 1 2 3 4 5 6 7 8 9 10 11 12 13 14 15 16 17 18 19 20 21 22 23 24 25 26 27 28 29 30 31 32 33 34 35 36 37 38 39 40 41 42 43 44 45 46 47 48 49 50
000
AXUS43 KGID 231602
MISGRI

GID CWA HOURLY WEATHER ROUNDUP
NATIONAL WEATHER SERVICE HASTINGS NE
1100 AM CDT FRI JUN 23 2017

NOTE: "FAIR" INDICATES FEW OR NO CLOUDS BELOW 12,000 FEET WITH NO
SIGNIFICANT WEATHER AND/OR OBSTRUCTIONS TO VISIBILITY.

...SOUTH CENTRAL NEBRASKA...

CITY           SKY/WX    TMP DP  RH WIND       PRES   REMARKS
GRAND ISLAND   LGT RAIN  61  50  67 N18       30.11R
HASTINGS       CLOUDY    68  44  42 N26G35    30.13R
KEARNEY        CLOUDY    66  43  42 N23G31    30.13R
ORD            CLOUDY    64  45  49 NW18G30   30.09S
YORK           LGT RAIN  63  46  55 N15G22    30.07R
AURORA         LGT RAIN  62  48  60 N20       30.09S
LEXINGTON      CLOUDY    61  45  56 N9        30.14S
HOLDREGE       MOSUNNY   64  44  46 N18G26    30.13R
HEBRON         CLOUDY    70  46  41 N16G22    30.09R

...NEBRASKA PANHANDLE...

CITY           SKY/WX    TMP DP  RH WIND       PRES   REMARKS
CHADRON        SUNNY     62  38  40 N13G24    30.22S
ALLIANCE       SUNNY     61  35  37 N23       30.21S
SCOTTSBLUFF    SUNNY     63  36  36 NW20G26   30.24F
SIDNEY         CLOUDY    56  39  53 NW16      30.26S

...WESTERN AND NORTH CENTRAL NEBRASKA...

CITY           SKY/WX    TMP DP  RH WIND       PRES   REMARKS
VALENTINE      MOSUNNY   66  41  40 NW22G31   30.14R
AINSWORTH      PTSUNNY   65  46  50 NW26G32   30.12S
ONEILL         MOSUNNY   63  50  62 NW23G30   30.09S
BROKEN BOW     CLOUDY    66  43  43 N22G32    30.11S
IMPERIAL       CLOUDY    65  43  44 N12       30.20F
NORTH PLATTE   CLOUDY    69  43  38 NW14G22   30.15F
MCCOOK         CLOUDY    66  46  48 N15G24    30.17R

...EASTERN NEBRASKA...

CITY           SKY/WX    TMP DP  RH WIND       PRES   REMARKS
NORFOLK        LGT RAIN  60  49  66 NW17G25   30.02F
SO SIOUX CITY  CLOUDY    63  52  67 NW17G30   29.98F
TEKAMAH        CLOUDY    66  48  52 NW22      30.01R
COLUMBUS       PTSUNNY   65  49  56 NW18      30.07R
ALBION         CLOUDY    60  51  71 NW16G22   30.06S
OMAHA EPPLEY   CLOUDY    69  50  50 NW24G30   29.99R
OFFUTT AFB     PTSUNNY   70  48  46 NE12G21   30.04R
MILLARD        PTSUNNY   69  51  51 NW20G25   30.01R
LINCOLN        PTSUNNY   68  48  48 N21G31    30.04R
NEBRASKA CITY  CLOUDY    68  54  61 N18G26    29.99R
BEATRICE       CLOUDY    68  49  50 N16G23    30.05R
FALLS CITY     CLOUDY    69  57  65 NW12G20   29.96R

...NORTHERN KANSAS...

CITY           SKY/WX    TMP DP  RH WIND       PRES   REMARKS
GOODLAND       CLOUDY    62  46  55 N16       30.21S
HILL CITY      CLOUDY    67  47  48 N21       30.15F
NORTON         SUNNY     68  37  32 N15G25    30.15
PHILLIPSBURG   SUNNY     70  43  37 N18G26    30.13F
SMITH CENTER   SUNNY     66  45  45 N16G22    30.12S
HAYS           LGT RAIN  62  57  83 N9        30.12F
RUSSELL        CLOUDY    64  54  69 N8        30.06F
CONCORDIA      CLOUDY    72  47  40 N14       30.08R
SALINA         LGT RAIN  70  57  63 N21       30.03R
TOPEKA         SUNNY     79  63  57 N13       29.92R



USA.gov is the U.S. government's official web portal to all federal, state and local government web resources and services.